Miscellaneous Local Product
Issued by NWS Hastings, NE

Home | Current Version | Previous Version | Text Only | Print | Product List | Glossary On
Versions: 1 2 3 4 5 6 7 8 9 10 11 12 13 14 15 16 17 18 19 20 21 22 23 24 25 26 27 28 29 30 31 32 33 34 35 36 37 38 39 40 41 42 43 44 45 46 47 48 49 50
703
AXUS43 KGID 232102
MISGRI

GID CWA HOURLY WEATHER ROUNDUP
NATIONAL WEATHER SERVICE HASTINGS NE
300 PM CST THU FEB 23 2017

NOTE: "FAIR" INDICATES FEW OR NO CLOUDS BELOW 12,000 FEET WITH NO
SIGNIFICANT WEATHER AND/OR OBSTRUCTIONS TO VISIBILITY.

...SOUTH CENTRAL NEBRASKA...

CITY           SKY/WX    TMP DP  RH WIND       PRES   REMARKS
GRAND ISLAND   CLOUDY    32  32 100 NE24G31   29.60R WCI  19
HASTINGS       CLOUDY    35  31  85 NE23G33   29.56F WCI  23
KEARNEY        CLOUDY    32  28  86 NE18G26   29.60S WCI  20
ORD            LGT SNOW  31  26  82 NE20G31   29.61F WCI  19
YORK           CLOUDY    36  32  87 NE23G32   29.58S WCI  24
AURORA         CLOUDY    34  32  92 NE21G30   29.58S WCI  22
LEXINGTON      CLOUDY    31  30  93 NE17      29.61S FOG     WCI  20
HOLDREGE       LGT SNOW  32  31  96 NE18G26   29.57F WCI  21
HEBRON         CLOUDY    41  33  73 NE16G24   29.52F

...NEBRASKA PANHANDLE...

CITY           SKY/WX    TMP DP  RH WIND       PRES   REMARKS
CHADRON        SNOW      25  21  85 N17       29.79S VSB 1/2 WCI  12
ALLIANCE       FOG       22  19  89 N23G30    29.67S VSB 1/4 WCI   6
SCOTTSBLUFF    HAZE      23  18  81 NE26G40   29.67F VSB 1/4 WCI   6
SIDNEY         LGT SNOW  23  20  88 N18       29.64R VSB 3/4 WCI   9

...WESTERN AND NORTH CENTRAL NEBRASKA...

CITY           SKY/WX    TMP DP  RH WIND       PRES   REMARKS
VALENTINE      SNOW      26  22  84 NE22G30   29.75F VSB 1/2 WCI  12
AINSWORTH      SNOW      27  26  96 NE23G30   29.72S VSB 1/2 WCI  12
ONEILL         CLOUDY    30  28  94 NE26G35   29.71F FOG     WCI  16
BROKEN BOW     SNOW      30  28  92 NE16G24   29.63S VSB 1/4 WCI  19
IMPERIAL       FRZ RAIN  28  26  92 NE16      29.59R FOG     WCI  16
NORTH PLATTE   LGT SNOW  30  25  81 NE15      29.62F WCI  19
MCCOOK         LGT SNOW  31  31 100 NE20G30   29.54F VSB 1   WCI  19

...EASTERN NEBRASKA...

CITY           SKY/WX    TMP DP  RH WIND       PRES   REMARKS
NORFOLK        CLOUDY    33  27  78 NE26G36   29.65F WCI  20
SO SIOUX CITY  MIX PCPN  37  30  75 NE12G28   29.73F WCI  29
TEKAMAH        CLOUDY    38  32  79 NE22      29.68F WCI  27
COLUMBUS       CLOUDY    34  28  80 NE18G30   29.63F WCI  23
ALBION         CLOUDY    34  28  80 NE23G29   29.63F WCI  22
OMAHA EPPLEY   CLOUDY    41  34  76 NE21G29   29.61F
OFFUTT AFB     CLOUDY    43  35  74 NE14G24   29.60F
MILLARD        CLOUDY    42  36  79 NE12G18   29.61F
LINCOLN        CLOUDY    41  34  76 NE22G29   29.59F
NEBRASKA CITY  CLOUDY    47  34  60 NE20      29.54F
BEATRICE       LGT RAIN  42  37  80 NE15G22   29.54S
FALLS CITY     CLOUDY    50  40  68 E16       29.50F

...NORTHERN KANSAS...

CITY           SKY/WX    TMP DP  RH WIND       PRES   REMARKS
GOODLAND       CLOUDY    31  31 100 NE15      29.53R WCI  20
HILL CITY      CLOUDY    38  34  85 NE21G30   29.52S WCI  28
NORTON         LGT RAIN  34  28  80 N16G22    29.55R WCI  23
PHILLIPSBURG   CLOUDY    37  32  81 N16G22    29.54S WCI  28
SMITH CENTER   CLOUDY    37  32  81 N18G26    29.52R WCI  27
HAYS           MOSUNNY   57  39  51 NE23      29.39F
RUSSELL        SUNNY     58  39  49 NE17      29.39F
CONCORDIA      CLOUDY    46  37  71 NE20      29.46S
SALINA         SUNNY     67  47  48 VRB5      29.39F
TOPEKA         MOSUNNY   62  48  60 E13       29.42F



USA.gov is the U.S. government's official web portal to all federal, state and local government web resources and services.